{"data":{"norad_id":43024,"intl_designator":"2017-074C","name":"JILIN-1 06","alt_names":[],"object_type":"PAYLOAD","status":"ACTIVE","operator":null,"country":"PRC","launch_date":"2017-11-21","launch_site_code":"TAISC","launch_vehicle":null,"mission":null,"orbit_class":"UNKNOWN","rcs_meters":null,"size_class":null,"mass_kg":null,"dimensions":null,"purposes":[],"wikipedia_slug":null,"has_3d_model":false,"image_url":null,"decayed_at":null,"tle_current":{"epoch":"2026-05-25T04:33:40.273344Z","epoch_age_seconds":69343,"freshness":"FRESH","line1":"1 43024U 17074C   26145.19004946  .00006040  00000+0  18955-3 0  9993","line2":"2 43024  97.4768 248.0796 0005889 332.0203  28.0721 15.33401723470319","mean_motion":15.33401723,"eccentricity":0.0005889,"inclination_deg":97.4768,"raan_deg":248.0796,"arg_perigee_deg":332.0203,"mean_anomaly_deg":28.0721,"bstar":0.00018955,"rev_number":47031,"period_min":93.908854959595,"perigee_km":461.6416203261,"apogee_km":469.70225849494,"semimajor_km":6843.8089394105,"source":"CELESTRAK","updated_at":"2026-05-25T13:37:55.756207Z"}}}